Time,TemperatureF,DewpointF,PressureIn,WindDirection,WindDirectionDegrees,WindSpeedMPH,WindSpeedGustMPH,Humidity,HourlyPrecipIn,Conditions,Clouds,dailyrainin,SoftwareType,DateUTC
2013-01-03 00:01:00,18.9,14.0,30.21,SW,223,10.0,16.0,80,0.00,,,0.00,weatherlink.com 1.10,2013-01-03 06:01:00,
2013-01-03 00:16:00,18.6,14.0,30.20,SW,225,12.0,13.0,81,0.00,,,0.00,weatherlink.com 1.10,2013-01-03 06:16:00,
2013-01-03 00:31:00,18.8,14.0,30.19,SSW,211,9.0,16.0,82,0.00,,,0.00,weatherlink.com 1.10,2013-01-03 06:31:00,
2013-01-03 00:46:00,19.0,14.0,30.19,SSW,213,9.0,15.0,82,0.00,,,0.00,weatherlink.com 1.10,2013-01-03 06:46:00,
2013-01-03 01:01:00,19.1,15.0,30.20,SW,233,8.0,13.0,82,0.00,,,0.00,weatherlink.com 1.10,2013-01-03 07:01:00,
2013-01-03 01:16:00,19.7,15.0,30.20,SW,223,7.0,14.0,82,0.00,,,0.00,weatherlink.com 1.10,2013-01-03 07:16:00,
2013-01-03 01:31:00,20.4,16.0,30.19,SW,234,8.0,12.0,82,0.00,,,0.00,weatherlink.com 1.10,2013-01-03 07:31:00,
2013-01-03 01:46:00,21.8,17.0,30.20,WSW,245,8.0,13.0,82,0.00,,,0.00,weatherlink.com 1.10,2013-01-03 07:46:00,
2013-01-03 02:01:00,23.0,18.0,30.21,WSW,250,6.0,15.0,80,0.00,,,0.00,weatherlink.com 1.10,2013-01-03 08:01:00,
2013-01-03 02:16:00,22.5,17.0,30.21,SW,233,9.0,12.0,80,0.00,,,0.00,weatherlink.com 1.10,2013-01-03 08:16:00,
2013-01-03 02:31:00,21.9,17.0,30.21,SW,225,7.0,11.0,81,0.00,,,0.00,weatherlink.com 1.10,2013-01-03 08:31:00,
2013-01-03 02:46:00,21.6,17.0,30.20,WSW,246,9.0,12.0,83,0.00,,,0.00,weatherlink.com 1.10,2013-01-03 08:46:00,
2013-01-03 03:01:00,21.5,17.0,30.21,WSW,250,5.0,11.0,83,0.00,,,0.00,weatherlink.com 1.10,2013-01-03 09:01:00,
2013-01-03 03:16:00,21.4,17.0,30.21,WSW,249,7.0,13.0,84,0.00,,,0.00,weatherlink.com 1.10,2013-01-03 09:16:00,
2013-01-03 03:31:00,21.5,17.0,30.21,WSW,255,7.0,11.0,84,0.00,,,0.00,weatherlink.com 1.10,2013-01-03 09:31:00,
2013-01-03 03:46:00,21.6,18.0,30.21,WSW,240,7.0,11.0,85,0.00,,,0.00,weatherlink.com 1.10,2013-01-03 09:46:00,
2013-01-03 04:01:00,21.7,18.0,30.21,WSW,240,8.0,11.0,85,0.00,,,0.00,weatherlink.com 1.10,2013-01-03 10:01:00,
2013-01-03 04:16:00,22.0,18.0,30.21,WSW,248,5.0,13.0,85,0.00,,,0.00,weatherlink.com 1.10,2013-01-03 10:16:00,
2013-01-03 04:31:00,22.1,19.0,30.21,WSW,240,5.0,9.0,86,0.00,,,0.00,weatherlink.com 1.10,2013-01-03 10:31:00,
2013-01-03 04:46:00,21.9,18.0,30.22,WSW,247,3.0,9.0,86,0.00,,,0.00,weatherlink.com 1.10,2013-01-03 10:46:00,
2013-01-03 05:01:00,21.5,18.0,30.22,WSW,241,6.0,10.0,86,0.00,,,0.00,weatherlink.com 1.10,2013-01-03 11:01:00,
2013-01-03 05:16:00,20.9,17.0,30.22,WSW,242,4.0,9.0,86,0.00,,,0.00,weatherlink.com 1.10,2013-01-03 11:16:00,
2013-01-03 05:31:00,20.3,17.0,30.22,WSW,247,5.0,6.0,87,0.00,,,0.00,weatherlink.com 1.10,2013-01-03 11:31:00,
2013-01-03 05:46:00,20.3,17.0,30.23,WSW,240,5.0,7.0,87,0.00,,,0.00,weatherlink.com 1.10,2013-01-03 11:46:00,
2013-01-03 06:01:00,20.2,17.0,30.23,WSW,243,6.0,8.0,87,0.00,,,0.00,weatherlink.com 1.10,2013-01-03 12:01:00,
2013-01-03 06:16:00,19.4,16.0,30.23,WSW,246,5.0,7.0,87,0.00,,,0.00,weatherlink.com 1.10,2013-01-03 12:16:00,
2013-01-03 06:31:00,19.5,17.0,30.23,WSW,256,3.0,7.0,89,0.00,,,0.00,weatherlink.com 1.10,2013-01-03 12:31:00,
2013-01-03 06:46:00,21.7,19.0,30.23,WSW,248,3.0,10.0,90,0.00,,,0.00,weatherlink.com 1.10,2013-01-03 12:46:00,
2013-01-03 07:01:00,22.9,20.0,30.23,West,259,7.0,10.0,90,0.00,,,0.00,weatherlink.com 1.10,2013-01-03 13:01:00,
2013-01-03 07:16:00,23.6,21.0,30.23,West,262,6.0,11.0,90,0.00,,,0.00,weatherlink.com 1.10,2013-01-03 13:16:00,
2013-01-03 07:31:00,23.9,21.0,30.23,WSW,246,5.0,8.0,90,0.00,,,0.00,weatherlink.com 1.10,2013-01-03 13:31:00,
2013-01-03 07:46:00,24.3,22.0,30.23,SW,224,6.0,9.0,90,0.00,,,0.00,weatherlink.com 1.10,2013-01-03 13:46:00,
2013-01-03 08:01:00,24.9,22.0,30.24,WSW,256,3.0,10.0,90,0.00,,,0.00,weatherlink.com 1.10,2013-01-03 14:01:00,
2013-01-03 08:16:00,25.4,23.0,30.25,WSW,238,6.0,9.0,90,0.00,,,0.00,weatherlink.com 1.10,2013-01-03 14:16:00,
2013-01-03 08:31:00,25.8,23.0,30.25,WSW,238,7.0,11.0,90,0.00,,,0.00,weatherlink.com 1.10,2013-01-03 14:31:00,
2013-01-03 08:46:00,26.2,24.0,30.26,WSW,244,6.0,13.0,90,0.00,,,0.00,weatherlink.com 1.10,2013-01-03 14:46:00,
2013-01-03 09:01:00,26.7,24.0,30.27,WSW,253,4.0,10.0,90,0.00,,,0.00,weatherlink.com 1.10,2013-01-03 15:01:00,
2013-01-03 09:16:00,26.9,24.0,30.27,WSW,244,5.0,11.0,90,0.00,,,0.00,weatherlink.com 1.10,2013-01-03 15:16:00,
2013-01-03 09:31:00,27.1,25.0,30.27,WSW,252,7.0,11.0,90,0.00,,,0.00,weatherlink.com 1.10,2013-01-03 15:31:00,
2013-01-03 09:46:00,27.5,25.0,30.28,WSW,246,8.0,11.0,89,0.00,,,0.00,weatherlink.com 1.10,2013-01-03 15:46:00,
2013-01-03 10:01:00,27.9,25.0,30.29,SW,234,7.0,12.0,89,0.00,,,0.00,weatherlink.com 1.10,2013-01-03 16:01:00,
2013-01-03 10:17:00,28.3,25.0,30.29,West,275,6.0,12.0,88,0.00,,,0.00,weatherlink.com 1.10,2013-01-03 16:17:00,
2013-01-03 10:32:00,28.6,26.0,30.29,West,270,10.0,15.0,88,0.00,,,0.00,weatherlink.com 1.10,2013-01-03 16:32:00,
2013-01-03 10:47:00,28.8,25.0,30.29,WSW,247,5.0,12.0,87,0.00,,,0.00,weatherlink.com 1.10,2013-01-03 16:47:00,
2013-01-03 11:02:00,29.2,26.0,30.29,WSW,248,9.0,13.0,87,0.00,,,0.00,weatherlink.com 1.10,2013-01-03 17:02:00,
2013-01-03 11:17:00,29.4,26.0,30.29,West,260,10.0,12.0,86,0.00,,,0.00,weatherlink.com 1.10,2013-01-03 17:17:00,
2013-01-03 11:32:00,29.5,26.0,30.28,West,280,7.0,13.0,86,0.00,,,0.00,weatherlink.com 1.10,2013-01-03 17:32:00,
2013-01-03 11:47:00,29.4,26.0,30.28,West,267,4.0,13.0,87,0.00,,,0.00,weatherlink.com 1.10,2013-01-03 17:47:00,
2013-01-03 12:02:00,29.6,26.0,30.28,WNW,284,5.0,13.0,87,0.00,,,0.00,weatherlink.com 1.10,2013-01-03 18:02:00,
2013-01-03 12:32:00,30.0,26.0,30.27,WSW,257,11.0,15.0,86,0.00,,,0.00,weatherlink.com 1.10,2013-01-03 18:32:00,
2013-01-03 12:47:00,30.2,27.0,30.27,West,268,6.0,15.0,86,0.00,,,0.00,weatherlink.com 1.10,2013-01-03 18:47:00,
2013-01-03 13:02:00,30.3,26.0,30.26,West,264,7.0,16.0,85,0.00,,,0.00,weatherlink.com 1.10,2013-01-03 19:02:00,
2013-01-03 13:17:00,30.3,26.0,30.27,WSW,257,8.0,16.0,85,0.00,,,0.00,weatherlink.com 1.10,2013-01-03 19:17:00,
2013-01-03 14:02:00,30.8,25.0,30.27,WNW,291,12.0,15.0,80,0.00,,,0.00,weatherlink.com 1.10,2013-01-03 20:02:00,
2013-01-03 14:32:00,30.8,25.0,30.28,West,261,5.0,12.0,80,0.00,,,0.00,weatherlink.com 1.10,2013-01-03 20:32:00,
2013-01-03 14:47:00,30.8,25.0,30.29,WNW,292,6.0,11.0,80,0.00,,,0.00,weatherlink.com 1.10,2013-01-03 20:47:00,
2013-01-03 15:02:00,31.0,26.0,30.29,NW,313,13.0,17.0,80,0.00,,,0.00,weatherlink.com 1.10,2013-01-03 21:02:00,
2013-01-03 15:17:00,30.6,24.0,30.30,West,269,12.0,17.0,76,0.00,,,0.00,weatherlink.com 1.10,2013-01-03 21:17:00,
2013-01-03 15:32:00,30.0,23.0,30.30,West,280,6.0,15.0,76,0.00,,,0.00,weatherlink.com 1.10,2013-01-03 21:32:00,
2013-01-03 15:47:00,29.3,22.0,30.30,West,264,11.0,14.0,75,0.00,,,0.00,weatherlink.com 1.10,2013-01-03 21:47:00,
2013-01-03 16:02:00,28.5,22.0,30.31,West,270,6.0,15.0,76,0.00,,,0.00,weatherlink.com 1.10,2013-01-03 22:02:00,
2013-01-03 16:17:00,27.4,22.0,30.31,West,279,4.0,8.0,79,0.00,,,0.00,weatherlink.com 1.10,2013-01-03 22:17:00,
2013-01-03 16:32:00,26.6,21.0,30.31,WNW,288,2.0,7.0,80,0.00,,,0.00,weatherlink.com 1.10,2013-01-03 22:32:00,
2013-01-03 16:47:00,25.8,21.0,30.32,West,271,5.0,8.0,82,0.00,,,0.00,weatherlink.com 1.10,2013-01-03 22:47:00,
2013-01-03 17:02:00,25.5,21.0,30.32,WNW,284,5.0,7.0,82,0.00,,,0.00,weatherlink.com 1.10,2013-01-03 23:02:00,
2013-01-03 17:17:00,25.2,20.0,30.33,West,276,4.0,7.0,82,0.00,,,0.00,weatherlink.com 1.10,2013-01-03 23:17:00,
2013-01-03 17:32:00,24.1,19.0,30.33,West,270,4.0,6.0,82,0.00,,,0.00,weatherlink.com 1.10,2013-01-03 23:32:00,
2013-01-03 17:47:00,23.0,19.0,30.34,WNW,286,4.0,8.0,83,0.00,,,0.00,weatherlink.com 1.10,2013-01-03 23:47:00,
2013-01-03 18:02:00,22.9,19.0,30.34,West,273,4.0,9.0,84,0.00,,,0.00,weatherlink.com 1.10,2013-01-04 00:02:00,
2013-01-03 18:17:00,22.7,19.0,30.34,WNW,301,4.0,9.0,84,0.00,,,0.00,weatherlink.com 1.10,2013-01-04 00:17:00,
2013-01-03 18:32:00,22.4,18.0,30.34,WNW,286,6.0,7.0,83,0.00,,,0.00,weatherlink.com 1.10,2013-01-04 00:32:00,
2013-01-03 19:03:00,18.9,15.0,30.36,WSW,254,3.0,6.0,83,0.00,,,0.00,weatherlink.com 1.10,2013-01-04 01:03:00,
2013-01-03 19:18:00,18.6,15.0,30.36,WSW,254,4.0,5.0,85,0.00,,,0.00,weatherlink.com 1.10,2013-01-04 01:18:00,
2013-01-03 19:33:00,18.4,14.0,30.36,West,275,2.0,5.0,84,0.00,,,0.00,weatherlink.com 1.10,2013-01-04 01:33:00,
2013-01-03 19:48:00,16.6,13.0,30.37,West,275,3.0,3.0,85,0.00,,,0.00,weatherlink.com 1.10,2013-01-04 01:48:00,
2013-01-03 20:03:00,17.1,14.0,30.36,West,275,1.0,6.0,87,0.00,,,0.00,weatherlink.com 1.10,2013-01-04 02:03:00,
2013-01-03 20:18:00,17.3,14.0,30.36,West,279,2.0,6.0,85,0.00,,,0.00,weatherlink.com 1.10,2013-01-04 02:18:00,
2013-01-03 20:33:00,16.8,13.0,30.37,West,279,2.0,4.0,85,0.00,,,0.00,weatherlink.com 1.10,2013-01-04 02:33:00,
2013-01-03 20:48:00,16.3,13.0,30.37,WNW,282,3.0,4.0,85,0.00,,,0.00,weatherlink.com 1.10,2013-01-04 02:48:00,
2013-01-03 21:03:00,16.0,12.0,30.37,West,279,3.0,6.0,85,0.00,,,0.00,weatherlink.com 1.10,2013-01-04 03:03:00,
2013-01-03 21:18:00,16.2,13.0,30.36,West,279,4.0,5.0,86,0.00,,,0.00,weatherlink.com 1.10,2013-01-04 03:18:00,
2013-01-03 21:33:00,15.3,11.0,30.37,WSW,250,5.0,7.0,84,0.00,,,0.00,weatherlink.com 1.10,2013-01-04 03:33:00,
2013-01-03 21:48:00,14.6,11.0,30.37,WSW,248,3.0,6.0,86,0.00,,,0.00,weatherlink.com 1.10,2013-01-04 03:48:00,
2013-01-03 22:03:00,15.0,12.0,30.37,West,262,2.0,7.0,86,0.00,,,0.00,weatherlink.com 1.10,2013-01-04 04:03:00,
2013-01-03 22:18:00,15.4,12.0,30.37,West,277,3.0,8.0,86,0.00,,,0.00,weatherlink.com 1.10,2013-01-04 04:18:00,
2013-01-03 22:33:00,15.2,12.0,30.37,West,262,3.0,7.0,86,0.00,,,0.00,weatherlink.com 1.10,2013-01-04 04:33:00,
2013-01-03 22:48:00,15.0,12.0,30.37,West,275,5.0,7.0,86,0.00,,,0.00,weatherlink.com 1.10,2013-01-04 04:48:00,
2013-01-03 23:03:00,15.0,12.0,30.36,WSW,257,2.0,8.0,86,0.00,,,0.00,weatherlink.com 1.10,2013-01-04 05:03:00,
2013-01-03 23:18:00,14.4,11.0,30.35,West,265,1.0,6.0,86,0.00,,,0.00,weatherlink.com 1.10,2013-01-04 05:18:00,
2013-01-03 23:33:00,12.0,9.0,30.36,West,262,3.0,4.0,86,0.00,,,0.00,weatherlink.com 1.10,2013-01-04 05:33:00,
2013-01-03 23:48:00,12.8,10.0,30.36,WSW,251,4.0,8.0,88,0.00,,,0.00,weatherlink.com 1.10,2013-01-04 05:48:00,